Orbital Elements at Epoch 2459200.5 (2020-Dec-17.0) TDB
Reference: JPL 15 (heliocentric ecliptic J2000)
Element | Value | Uncertainty (1-sigma) | Units |
e | .1771776526038304 | 4.773e-08 | |
a | 3.05580306999969 | 2.8758e-08 | au |
q | 2.514383055237567 | 1.5676e-07 | au |
i | 10.75367432544654 | 5.2741e-06 | deg |
node | 110.0207179809956 | 2.4984e-05 | deg |
peri | 305.0067088072911 | 3.1589e-05 | deg |
M | 299.6350155366672 | 2.4143e-05 | deg |
tp | 2459527.666677503018 (2021-Nov-09.16667750) | 0.00013439 | TDB |
period | 1951.131188853848 5.34 | 2.7543e-05 7.541e-08 | d yr |
n | .1845083519019932 | 2.6046e-09 | deg/d |
Q | 3.597223084761814 | 3.3853e-08 | au |
|
| | Orbit Determination Parameters
Additional Information
|